Weather History for Berlin, NH

Change the Weather History Date:

Saturday, January 23, 1999

  Actual Average Record
Temperature  
Mean Temperature 31 °F -  
Max Temperature 36 °F 20 °F 46 °F (1997)
Min Temperature 26 °F 0 °F -22 °F (2000)
Degree Days  
Heating Degree Days 34    
Moisture  
Dew Point 27 °F    
Average Humidity 86    
Maximum Humidity 100    
Minimum Humidity 78    
Precipitation  
Precipitation 0.01 in - - ()
Sea Level Pressure  
Sea Level Pressure 30.33 in    
Wind  
Wind Speed 9 mph (SE)    
Max Wind Speed 15 mph    
Max Gust Speed 18 mph    
Visibility 10 miles    
Events Rain    
Averages and records for this station are not official NWS values.
T = Trace of Precipitation, MM = Missing Value Source: NWS Daily Summary

Daily Weather History Graph

Daily Weather History Graph

Search for Another Location

Airport:

Trip Planner

Search our weather history database for the weather conditions in past years. The results will help you decide how hot, cold, wet, or windy it might be!

Date:

Astronomy

Jan. 23, 1999 Rise Set
Actual Time 7:12 AM EST 4:40 PM EST
Civil Twilight 6:40 AM EST 5:12 PM EST
Nautical Twilight 6:05 AM EST 5:48 PM EST
Astronomical Twilight 5:30 AM EST 6:22 PM EST
Moon 10:36 AM EST (1/23) 11:35 PM EST (1/23)
Length of Visible Light 10h 31m
Length of Day
9h 27m
Waxing Crescent, 38% of the Moon is Illuminated
Jan 23
Waxing Crescent
Jan 24
First Quarter
Jan 31
Full
Feb 8
Last Quarter
Feb 16
New

Hourly Weather History & Observations

Time (EST) Temp. Windchill Dew Point Humidity Pressure Visibility Wind Dir Wind Speed Gust Speed Precip Events Conditions
12:52 AM 27.0 °F 15.6 °F 21.9 °F 81% 30.54 in 10.0 mi SE 13.8 mph - N/A   Overcast
1:14 AM 26.6 °F 15.7 °F 21.2 °F 80% 30.49 in 10.0 mi SSE 12.7 mph - N/A   Overcast
1:52 AM 27.0 °F 16.7 °F 21.9 °F 81% 30.52 in 10.0 mi SE 11.5 mph - N/A   Overcast
2:52 AM 28.0 °F 17.0 °F 21.9 °F 78% 30.51 in 10.0 mi SSE 13.8 mph - N/A   Overcast
3:03 AM 28.4 °F 19.1 °F 23.0 °F 80% 30.45 in 10.0 mi SE 10.4 mph - N/A   Overcast
3:52 AM 28.9 °F 21.1 °F 23.0 °F 78% 30.49 in 10.0 mi SE 8.1 mph - N/A   Overcast
4:52 AM 30.0 °F 20.5 °F 24.1 °F 79% 30.46 in 10.0 mi SE 11.5 mph 16.1 mph N/A   Overcast
5:52 AM 30.0 °F 20.0 °F 25.0 °F 82% 30.48 in 10.0 mi SSE 12.7 mph - N/A   Overcast
6:52 AM 30.9 °F 21.2 °F 25.0 °F 79% 30.47 in 10.0 mi SSE 12.7 mph - N/A   Overcast
7:52 AM 30.9 °F 20.2 °F 25.0 °F 79% 30.48 in 10.0 mi SSE 15.0 mph - N/A   Overcast
8:52 AM 32.0 °F 22.5 °F 26.1 °F 79% 30.48 in 10.0 mi SSE 12.7 mph 18.4 mph 0.00 in Rain Light Rain
9:00 AM 32.0 °F 22.5 °F 26.6 °F 80% 30.42 in 5.0 mi SSE 12.7 mph - 0.00 in Rain Light Freezing Rain
9:12 AM 32.0 °F 24.2 °F 26.6 °F 80% 30.42 in 6.0 mi SSE 9.2 mph - 0.01 in Rain Light Freezing Rain
9:43 AM 33.8 °F 26.4 °F 28.4 °F 81% 30.41 in 10.0 mi SSE 9.2 mph - 0.01 in   Overcast
9:52 AM 33.1 °F 26.1 °F 28.9 °F 85% 30.46 in 10.0 mi SSE 8.1 mph - 0.01 in   Overcast
10:52 AM 34.0 °F 28.8 °F 28.9 °F 82% 30.45 in 10.0 mi Variable 5.8 mph - N/A   Overcast
11:52 AM 35.1 °F 26.4 °F 30.0 °F 82% 30.41 in 10.0 mi SSE 12.7 mph - N/A   Overcast
12:52 PM 35.1 °F 30.1 °F 30.9 °F 85% 30.37 in 10.0 mi SSW 5.8 mph - N/A   Overcast
1:52 PM 36.0 °F 29.6 °F 30.9 °F 82% 30.33 in 10.0 mi South 8.1 mph - N/A   Overcast
2:52 PM 34.0 °F 28.0 °F 30.0 °F 85% 30.31 in 10.0 mi NNW 6.9 mph - N/A   Overcast
3:52 PM 34.0 °F 29.8 °F 30.0 °F 85% 30.28 in 10.0 mi NNW 4.6 mph - N/A   Overcast
4:52 PM 34.0 °F 31.0 °F 30.9 °F 89% 30.27 in 10.0 mi NNW 3.5 mph - N/A   Mostly Cloudy
5:10 PM 33.8 °F - 30.2 °F 87% 30.22 in 10.0 mi Calm Calm - N/A   Scattered Clouds
5:52 PM 33.1 °F - 30.0 °F 89% 30.24 in 10.0 mi Calm Calm - N/A   Clear
6:52 PM 32.0 °F 28.7 °F 30.0 °F 92% 30.21 in 10.0 mi Variable 3.5 mph - N/A   Clear
7:04 PM 30.2 °F 26.7 °F 30.2 °F 100% 30.16 in 10.0 mi Variable 3.5 mph - N/A   Partly Cloudy
7:52 PM 32.0 °F 27.5 °F 28.9 °F 88% 30.18 in 10.0 mi NNW 4.6 mph - N/A   Clear
8:22 PM 28.4 °F 24.6 °F 26.6 °F 93% 30.14 in 10.0 mi East 3.5 mph - N/A   Scattered Clouds
8:33 PM 30.2 °F 25.4 °F 28.4 °F 93% 30.14 in 10.0 mi East 4.6 mph - N/A   Mostly Cloudy
8:52 PM 30.0 °F - 28.9 °F 96% 30.18 in 10.0 mi Calm Calm - N/A   Overcast
9:04 PM 30.2 °F - 28.4 °F 93% 30.13 in 10.0 mi Calm Calm - N/A   Overcast
9:52 PM 28.9 °F - 28.0 °F 96% 30.16 in 10.0 mi Calm Calm - N/A   Overcast
10:14 PM 28.4 °F - 28.4 °F 100% 30.09 in 10.0 mi Calm Calm - N/A   Mostly Cloudy
10:52 PM 28.0 °F - 27.0 °F 96% 30.11 in 9.0 mi Calm Calm - N/A   Partly Cloudy
11:52 PM 28.0 °F - 27.0 °F 96% 30.08 in 10.0 mi Calm Calm - N/A   Mostly Cloudy